Year,Month,Day,Hour,Minute,Value (Times are PST for temperature in C)
2023,05,14,00,00,20.30
2023,05,14,00,01,20.30
2023,05,14,00,02,20.30
2023,05,14,00,03,20.30
2023,05,14,00,04,20.30
2023,05,14,00,05,20.30
2023,05,14,00,06,20.20
2023,05,14,00,07,20.30
2023,05,14,00,08,20.30
2023,05,14,00,09,20.30
2023,05,14,00,10,20.30
2023,05,14,00,11,20.30
2023,05,14,00,12,20.30
2023,05,14,00,13,20.30
2023,05,14,00,14,20.30
2023,05,14,00,15,20.30
2023,05,14,00,16,20.30
2023,05,14,00,17,20.30
2023,05,14,00,18,20.30
2023,05,14,00,19,20.30
2023,05,14,00,20,20.30
2023,05,14,00,21,20.30
2023,05,14,00,22,20.30
2023,05,14,00,23,20.30
2023,05,14,00,24,20.40
2023,05,14,00,25,20.50
2023,05,14,00,26,20.50
2023,05,14,00,27,20.50
2023,05,14,00,28,20.40
2023,05,14,00,29,20.40
2023,05,14,00,30,20.40
2023,05,14,00,31,20.40
2023,05,14,00,32,20.50
2023,05,14,00,33,20.50
2023,05,14,00,34,20.50
2023,05,14,00,35,20.50
2023,05,14,00,36,20.50
2023,05,14,00,37,20.50
2023,05,14,00,38,20.50
2023,05,14,00,39,20.40
2023,05,14,00,40,20.40
2023,05,14,00,41,20.40
2023,05,14,00,42,20.40
2023,05,14,00,43,20.30
2023,05,14,00,44,20.30
2023,05,14,00,45,20.20
2023,05,14,00,46,20.20
2023,05,14,00,47,20.20
2023,05,14,00,48,20.10
2023,05,14,00,49,20.10
2023,05,14,00,50,20.00
2023,05,14,00,51,19.90
2023,05,14,00,52,19.90
2023,05,14,00,53,19.90
2023,05,14,00,54,19.80
2023,05,14,00,55,19.90
2023,05,14,00,56,19.90
2023,05,14,00,57,19.80
2023,05,14,00,58,19.80
2023,05,14,00,59,19.80
2023,05,14,01,00,19.80
2023,05,14,01,01,19.70
2023,05,14,01,02,19.60
2023,05,14,01,03,19.60
2023,05,14,01,04,19.60
2023,05,14,01,05,19.50
2023,05,14,01,06,19.40
2023,05,14,01,07,19.40
2023,05,14,01,08,19.40
2023,05,14,01,09,19.40
2023,05,14,01,10,19.30
2023,05,14,01,11,19.30
2023,05,14,01,12,19.20
2023,05,14,01,13,19.20
2023,05,14,01,14,19.10
2023,05,14,01,15,19.10
2023,05,14,01,16,19.00
2023,05,14,01,17,19.00
2023,05,14,01,18,19.00
2023,05,14,01,19,19.00
2023,05,14,01,20,18.90
2023,05,14,01,21,18.90
2023,05,14,01,22,18.90
2023,05,14,01,23,18.80
2023,05,14,01,24,18.80
2023,05,14,01,25,18.70
2023,05,14,01,26,18.60
2023,05,14,01,27,18.60
2023,05,14,01,28,18.50
2023,05,14,01,29,18.50
2023,05,14,01,30,18.40
2023,05,14,01,31,18.50
2023,05,14,01,32,18.50
2023,05,14,01,33,18.50
2023,05,14,01,34,18.40
2023,05,14,01,35,18.40
2023,05,14,01,36,18.30
2023,05,14,01,37,18.30
2023,05,14,01,38,18.20
2023,05,14,01,39,18.20
2023,05,14,01,40,18.20
2023,05,14,01,41,18.10
2023,05,14,01,42,18.10
2023,05,14,01,43,18.10
2023,05,14,01,44,18.10
2023,05,14,01,45,18.10
2023,05,14,01,46,18.00
2023,05,14,01,47,18.00
2023,05,14,01,48,18.00
2023,05,14,01,49,17.90
2023,05,14,01,50,17.90
2023,05,14,01,51,17.80
2023,05,14,01,52,17.80
2023,05,14,01,53,17.80
2023,05,14,01,54,17.80
2023,05,14,01,55,17.80
2023,05,14,01,56,17.80
2023,05,14,01,57,17.80
2023,05,14,01,58,17.70
2023,05,14,01,59,17.70
2023,05,14,02,00,17.70
2023,05,14,02,01,17.70
2023,05,14,02,02,17.70
2023,05,14,02,03,17.70
2023,05,14,02,04,17.70
2023,05,14,02,05,17.70
2023,05,14,02,06,17.70
2023,05,14,02,07,17.60
2023,05,14,02,08,17.60
2023,05,14,02,09,17.50
2023,05,14,02,10,17.50
2023,05,14,02,11,17.40
2023,05,14,02,12,17.40
2023,05,14,02,13,17.40
2023,05,14,02,14,17.40
2023,05,14,02,15,17.40
2023,05,14,02,16,17.40
2023,05,14,02,17,17.40
2023,05,14,02,18,17.40
2023,05,14,02,19,17.40
2023,05,14,02,20,17.40
2023,05,14,02,21,17.50
2023,05,14,02,22,17.50
2023,05,14,02,23,17.50
2023,05,14,02,24,17.40
2023,05,14,02,25,17.40
2023,05,14,02,26,17.50
2023,05,14,02,27,17.50
2023,05,14,02,28,17.50
2023,05,14,02,29,17.60
2023,05,14,02,30,17.60
2023,05,14,02,31,17.60
2023,05,14,02,32,17.60
2023,05,14,02,33,17.60
2023,05,14,02,34,17.60
2023,05,14,02,35,17.60
2023,05,14,02,36,17.50
2023,05,14,02,37,17.50
2023,05,14,02,38,17.40
2023,05,14,02,39,17.30
2023,05,14,02,40,17.20
2023,05,14,02,41,17.20
2023,05,14,02,42,17.20
2023,05,14,02,43,17.10
2023,05,14,02,44,17.10
2023,05,14,02,45,17.00
2023,05,14,02,46,17.00
2023,05,14,02,47,16.90
2023,05,14,02,48,16.80
2023,05,14,02,49,16.80
2023,05,14,02,50,16.70
2023,05,14,02,51,16.70
2023,05,14,02,52,16.70
2023,05,14,02,53,16.70
2023,05,14,02,54,16.70
2023,05,14,02,55,16.70
2023,05,14,02,56,16.70
2023,05,14,02,57,16.70
2023,05,14,02,58,16.70
2023,05,14,02,59,16.70
2023,05,14,03,00,16.70
2023,05,14,03,01,16.70
2023,05,14,03,02,16.70
2023,05,14,03,03,16.70
2023,05,14,03,04,16.70
2023,05,14,03,05,16.70
2023,05,14,03,06,16.70
2023,05,14,03,07,16.70
2023,05,14,03,08,16.60
2023,05,14,03,09,16.60
2023,05,14,03,10,16.60
2023,05,14,03,11,16.60
2023,05,14,03,12,16.60
2023,05,14,03,13,16.60
2023,05,14,03,14,16.60
2023,05,14,03,15,16.60
2023,05,14,03,16,16.60
2023,05,14,03,17,16.60
2023,05,14,03,18,16.60
2023,05,14,03,19,16.50
2023,05,14,03,20,16.40
2023,05,14,03,21,16.40
2023,05,14,03,22,16.30
2023,05,14,03,23,16.30
2023,05,14,03,24,16.20
2023,05,14,03,25,16.20
2023,05,14,03,26,16.20
2023,05,14,03,27,16.20
2023,05,14,03,28,16.10
2023,05,14,03,29,16.10
2023,05,14,03,30,16.10
2023,05,14,03,31,16.10
2023,05,14,03,32,16.00
2023,05,14,03,33,16.00
2023,05,14,03,34,15.90
2023,05,14,03,35,15.90
2023,05,14,03,36,15.90
2023,05,14,03,37,15.90
2023,05,14,03,38,16.00
2023,05,14,03,39,16.00
2023,05,14,03,40,16.00
2023,05,14,03,41,16.00
2023,05,14,03,42,16.00
2023,05,14,03,43,16.00
2023,05,14,03,44,15.90
2023,05,14,03,45,15.90
2023,05,14,03,46,15.90
2023,05,14,03,47,15.80
2023,05,14,03,48,15.80
2023,05,14,03,49,15.80
2023,05,14,03,50,15.80
2023,05,14,03,51,15.80
2023,05,14,03,52,15.80
2023,05,14,03,53,15.80
2023,05,14,03,54,15.80
2023,05,14,03,55,15.80
2023,05,14,03,56,15.70
2023,05,14,03,57,15.70
2023,05,14,03,58,15.70
2023,05,14,03,59,15.70
2023,05,14,04,00,15.70
2023,05,14,04,01,15.60
2023,05,14,04,02,15.60
2023,05,14,04,03,15.60
2023,05,14,04,04,15.60
2023,05,14,04,05,15.60
2023,05,14,04,06,15.60
2023,05,14,04,07,15.60
2023,05,14,04,08,15.60
2023,05,14,04,09,15.60
2023,05,14,04,10,15.60
2023,05,14,04,11,15.60
2023,05,14,04,12,15.60
2023,05,14,04,13,15.70
2023,05,14,04,14,15.70
2023,05,14,04,15,15.80
2023,05,14,04,16,15.90
2023,05,14,04,17,16.00
2023,05,14,04,18,16.10
2023,05,14,04,19,16.10
2023,05,14,04,20,16.10
2023,05,14,04,21,16.10
2023,05,14,04,22,16.20
2023,05,14,04,23,16.10
2023,05,14,04,24,16.10
2023,05,14,04,25,16.10
2023,05,14,04,26,16.10
2023,05,14,04,27,16.10
2023,05,14,04,28,16.20
2023,05,14,04,29,16.10
2023,05,14,04,30,16.10
2023,05,14,04,31,16.10
2023,05,14,04,32,16.10
2023,05,14,04,33,16.10
2023,05,14,04,34,16.10
2023,05,14,04,35,16.20
2023,05,14,04,36,16.20
2023,05,14,04,37,16.20
2023,05,14,04,38,16.30
2023,05,14,04,39,16.30
2023,05,14,04,40,16.30
2023,05,14,04,41,16.40
2023,05,14,04,42,16.40
2023,05,14,04,43,16.40
2023,05,14,04,44,16.40
2023,05,14,04,45,16.30
2023,05,14,04,46,16.30
2023,05,14,04,47,16.30
2023,05,14,04,48,16.30
2023,05,14,04,49,16.20
2023,05,14,04,50,16.20
2023,05,14,04,51,16.20
2023,05,14,04,52,16.20
2023,05,14,04,53,16.10
2023,05,14,04,54,16.10
2023,05,14,04,55,16.10
2023,05,14,04,56,16.00
2023,05,14,04,57,16.00
2023,05,14,04,58,16.10
2023,05,14,04,59,16.10
2023,05,14,05,00,16.10
2023,05,14,05,01,16.10
2023,05,14,05,02,16.20
2023,05,14,05,03,16.30
2023,05,14,05,04,16.30
2023,05,14,05,05,16.30
2023,05,14,05,06,16.30
2023,05,14,05,07,16.30
2023,05,14,05,08,16.40
2023,05,14,05,09,16.40
2023,05,14,05,10,16.40
2023,05,14,05,11,16.40
2023,05,14,05,12,16.40
2023,05,14,05,13,16.40
2023,05,14,05,14,16.40
2023,05,14,05,15,16.40
2023,05,14,05,16,16.40
2023,05,14,05,17,16.40
2023,05,14,05,18,16.40
2023,05,14,05,19,16.40
2023,05,14,05,20,16.30
2023,05,14,05,21,16.30
2023,05,14,05,22,16.20
2023,05,14,05,23,16.20
2023,05,14,05,24,16.10
2023,05,14,05,25,16.10
2023,05,14,05,26,16.10
2023,05,14,05,27,16.00
2023,05,14,05,28,16.00
2023,05,14,05,29,16.00
2023,05,14,05,30,16.00
2023,05,14,05,31,16.10
2023,05,14,05,32,16.10
2023,05,14,05,33,16.10
2023,05,14,05,34,16.20
2023,05,14,05,35,16.20
2023,05,14,05,36,16.20
2023,05,14,05,37,16.20
2023,05,14,05,38,16.20
2023,05,14,05,39,16.20
2023,05,14,05,40,16.20
2023,05,14,05,41,16.20
2023,05,14,05,42,16.20
2023,05,14,05,43,16.20
2023,05,14,05,44,16.20
2023,05,14,05,45,16.30
2023,05,14,05,46,16.30
2023,05,14,05,47,16.20
2023,05,14,05,48,16.20
2023,05,14,05,49,16.10
2023,05,14,05,50,16.10
2023,05,14,05,51,16.10
2023,05,14,05,52,16.10
2023,05,14,05,53,16.10
2023,05,14,05,54,16.10
2023,05,14,05,55,16.10
2023,05,14,05,56,16.10
2023,05,14,05,57,16.00
2023,05,14,05,58,16.00
2023,05,14,05,59,16.00
2023,05,14,06,00,16.00
2023,05,14,06,01,16.00
2023,05,14,06,02,16.00
2023,05,14,06,03,16.00
2023,05,14,06,04,16.10
2023,05,14,06,05,16.20
2023,05,14,06,06,16.30
2023,05,14,06,07,16.40
2023,05,14,06,08,16.50
2023,05,14,06,09,16.50
2023,05,14,06,10,16.50
2023,05,14,06,11,16.50
2023,05,14,06,12,16.50
2023,05,14,06,13,16.50
2023,05,14,06,14,16.50
2023,05,14,06,15,16.50
2023,05,14,06,16,16.50
2023,05,14,06,17,16.50
2023,05,14,06,18,16.50
2023,05,14,06,19,16.50
2023,05,14,06,20,16.40
2023,05,14,06,21,16.40
2023,05,14,06,22,16.30
2023,05,14,06,23,16.30
2023,05,14,06,24,16.30
2023,05,14,06,25,16.20
2023,05,14,06,26,16.20
2023,05,14,06,27,16.20
2023,05,14,06,28,16.10
2023,05,14,06,29,16.10
2023,05,14,06,30,16.10
2023,05,14,06,31,16.00
2023,05,14,06,32,16.00
2023,05,14,06,33,15.90
2023,05,14,06,34,15.90
2023,05,14,06,35,15.90
2023,05,14,06,36,15.90
2023,05,14,06,37,15.90
2023,05,14,06,38,15.90
2023,05,14,06,39,16.00
2023,05,14,06,40,16.00
2023,05,14,06,41,16.00
2023,05,14,06,42,16.00
2023,05,14,06,43,16.00
2023,05,14,06,44,16.00
2023,05,14,06,45,16.00
2023,05,14,06,46,16.00
2023,05,14,06,47,15.90
2023,05,14,06,48,15.90
2023,05,14,06,49,15.80
2023,05,14,06,50,15.80
2023,05,14,06,51,15.80
2023,05,14,06,52,15.80
2023,05,14,06,53,15.80
2023,05,14,06,54,15.80
2023,05,14,06,55,15.80
2023,05,14,06,56,15.80
2023,05,14,06,57,15.90
2023,05,14,06,58,15.90
2023,05,14,06,59,15.90
2023,05,14,07,00,15.90
2023,05,14,07,01,15.90
2023,05,14,07,02,15.90
2023,05,14,07,03,16.00
2023,05,14,07,04,16.00
2023,05,14,07,05,16.00
2023,05,14,07,06,16.00
2023,05,14,07,07,16.00
2023,05,14,07,08,16.10
2023,05,14,07,09,16.10
2023,05,14,07,10,16.10
2023,05,14,07,11,16.20
2023,05,14,07,12,16.20
2023,05,14,07,13,16.30
2023,05,14,07,14,16.30
2023,05,14,07,15,16.30
2023,05,14,07,16,16.30
2023,05,14,07,17,16.30
2023,05,14,07,18,16.30
2023,05,14,07,19,16.30
2023,05,14,07,20,16.30
2023,05,14,07,21,16.30
2023,05,14,07,22,16.30
2023,05,14,07,23,16.30
2023,05,14,07,24,16.30
2023,05,14,07,25,16.40
2023,05,14,07,26,16.40
2023,05,14,07,27,16.50
2023,05,14,07,28,16.50
2023,05,14,07,29,16.60
2023,05,14,07,30,16.60
2023,05,14,07,31,16.70
2023,05,14,07,32,16.80
2023,05,14,07,33,16.80
2023,05,14,07,34,16.90
2023,05,14,07,35,16.90
2023,05,14,07,36,16.90
2023,05,14,07,37,16.90
2023,05,14,07,38,16.90
2023,05,14,07,39,16.90
2023,05,14,07,40,17.00
2023,05,14,07,41,17.00
2023,05,14,07,42,17.00
2023,05,14,07,43,17.10
2023,05,14,07,44,17.20
2023,05,14,07,45,17.20
2023,05,14,07,46,17.20
2023,05,14,07,47,17.20
2023,05,14,07,48,17.20
2023,05,14,07,49,17.30
2023,05,14,07,50,17.30
2023,05,14,07,51,17.30
2023,05,14,07,52,17.30
2023,05,14,07,53,17.30
2023,05,14,07,54,17.30
2023,05,14,07,55,17.20
2023,05,14,07,56,17.20
2023,05,14,07,57,17.20
2023,05,14,07,58,17.20
2023,05,14,07,59,17.30
2023,05,14,08,00,17.20
2023,05,14,08,01,17.20
2023,05,14,08,02,17.20
2023,05,14,08,03,17.20
2023,05,14,08,04,17.20
2023,05,14,08,05,17.20
2023,05,14,08,06,17.30
2023,05,14,08,07,17.30
2023,05,14,08,08,17.30
2023,05,14,08,09,17.30
2023,05,14,08,10,17.30
2023,05,14,08,11,17.40
2023,05,14,08,12,17.40
2023,05,14,08,13,17.50
2023,05,14,08,14,17.60
2023,05,14,08,15,17.60
2023,05,14,08,16,17.70
2023,05,14,08,17,17.80
2023,05,14,08,18,17.80
2023,05,14,08,19,17.80
2023,05,14,08,20,17.90
2023,05,14,08,21,17.90
2023,05,14,08,22,17.90
2023,05,14,08,23,17.90
2023,05,14,08,24,18.00
2023,05,14,08,25,18.00
2023,05,14,08,26,18.10
2023,05,14,08,27,18.10
2023,05,14,08,28,18.10
2023,05,14,08,29,18.10
2023,05,14,08,30,18.10
2023,05,14,08,31,18.10
2023,05,14,08,32,18.10
2023,05,14,08,33,18.20
2023,05,14,08,34,18.20
2023,05,14,08,35,18.20
2023,05,14,08,36,18.20
2023,05,14,08,37,18.30
2023,05,14,08,38,18.30
2023,05,14,08,39,18.30
2023,05,14,08,40,18.40
2023,05,14,08,41,18.40
2023,05,14,08,42,18.50
2023,05,14,08,43,18.60
2023,05,14,08,44,18.60
2023,05,14,08,45,18.60
2023,05,14,08,46,18.70
2023,05,14,08,47,18.70
2023,05,14,08,48,18.80
2023,05,14,08,49,18.80
2023,05,14,08,50,18.90
2023,05,14,08,51,18.90
2023,05,14,08,52,18.90
2023,05,14,08,53,18.90
2023,05,14,08,54,19.00
2023,05,14,08,55,19.00
2023,05,14,08,56,19.00
2023,05,14,08,57,19.10
2023,05,14,08,58,19.10
2023,05,14,08,59,19.10
2023,05,14,09,00,19.10
2023,05,14,09,01,19.10
2023,05,14,09,02,19.20
2023,05,14,09,03,19.20
2023,05,14,09,04,19.30
2023,05,14,09,05,19.30
2023,05,14,09,06,19.30
2023,05,14,09,07,19.40
2023,05,14,09,08,19.40
2023,05,14,09,09,19.50
2023,05,14,09,10,19.60
2023,05,14,09,11,19.60
2023,05,14,09,12,19.60
2023,05,14,09,13,19.70
2023,05,14,09,14,19.70
2023,05,14,09,15,19.80
2023,05,14,09,16,19.80
2023,05,14,09,17,19.90
2023,05,14,09,18,19.90
2023,05,14,09,19,19.90
2023,05,14,09,20,20.00
2023,05,14,09,21,20.10
2023,05,14,09,22,20.10
2023,05,14,09,23,20.10
2023,05,14,09,24,20.20
2023,05,14,09,25,20.20
2023,05,14,09,26,20.30
2023,05,14,09,27,20.30
2023,05,14,09,28,20.30
2023,05,14,09,29,20.30
2023,05,14,09,30,20.40
2023,05,14,09,31,20.40
2023,05,14,09,32,20.50
2023,05,14,09,33,20.50
2023,05,14,09,34,20.60
2023,05,14,09,35,20.70
2023,05,14,09,36,20.80
2023,05,14,09,37,20.80
2023,05,14,09,38,20.90
2023,05,14,09,39,20.90
2023,05,14,09,40,21.00
2023,05,14,09,41,21.10
2023,05,14,09,42,21.10
2023,05,14,09,43,21.20
2023,05,14,09,44,21.20
2023,05,14,09,45,21.20
2023,05,14,09,46,21.30
2023,05,14,09,47,21.30
2023,05,14,09,48,21.40
2023,05,14,09,49,21.40
2023,05,14,09,50,21.50
2023,05,14,09,51,21.50
2023,05,14,09,52,21.60
2023,05,14,09,53,21.60
2023,05,14,09,54,21.60
2023,05,14,09,55,21.60
2023,05,14,09,56,21.60
2023,05,14,09,57,21.70
2023,05,14,09,58,21.70
2023,05,14,09,59,21.70
2023,05,14,10,00,21.80
2023,05,14,10,01,21.80
2023,05,14,10,02,21.90
2023,05,14,10,03,21.90
2023,05,14,10,04,22.00
2023,05,14,10,05,22.10
2023,05,14,10,06,22.10
2023,05,14,10,07,22.20
2023,05,14,10,08,22.20
2023,05,14,10,09,22.20
2023,05,14,10,10,22.20
2023,05,14,10,11,22.20
2023,05,14,10,12,22.20
2023,05,14,10,13,22.10
2023,05,14,10,14,22.10
2023,05,14,10,15,22.20
2023,05,14,10,16,22.20
2023,05,14,10,17,22.20
2023,05,14,10,18,22.10
2023,05,14,10,19,22.10
2023,05,14,10,20,22.10
2023,05,14,10,21,22.20
2023,05,14,10,22,22.20
2023,05,14,10,23,22.30
2023,05,14,10,24,22.40
2023,05,14,10,25,22.40
2023,05,14,10,26,22.50
2023,05,14,10,27,22.50
2023,05,14,10,28,22.60
2023,05,14,10,29,22.60
2023,05,14,10,30,22.60
2023,05,14,10,31,22.70
2023,05,14,10,32,22.70
2023,05,14,10,33,22.80
2023,05,14,10,34,22.80
2023,05,14,10,35,22.80
2023,05,14,10,36,22.90
2023,05,14,10,37,22.90
2023,05,14,10,38,23.00
2023,05,14,10,39,23.10
2023,05,14,10,40,23.20
2023,05,14,10,41,23.20
2023,05,14,10,42,23.30
2023,05,14,10,43,23.30
2023,05,14,10,44,23.40
2023,05,14,10,45,23.40
2023,05,14,10,46,23.40
2023,05,14,10,47,23.40
2023,05,14,10,48,23.50
2023,05,14,10,49,23.60
2023,05,14,10,50,23.60
2023,05,14,10,51,23.70
2023,05,14,10,52,23.70
2023,05,14,10,53,23.70
2023,05,14,10,54,23.80
2023,05,14,10,55,23.80
2023,05,14,10,56,23.90
2023,05,14,10,57,23.90
2023,05,14,10,58,24.00
2023,05,14,10,59,24.10
2023,05,14,11,00,24.10
2023,05,14,11,01,24.10
2023,05,14,11,02,24.10
2023,05,14,11,03,24.10
2023,05,14,11,04,24.10
2023,05,14,11,05,24.10
2023,05,14,11,06,24.10
2023,05,14,11,07,24.20
2023,05,14,11,08,24.20
2023,05,14,11,09,24.30
2023,05,14,11,10,24.50
2023,05,14,11,11,24.60
2023,05,14,11,12,24.70
2023,05,14,11,13,24.80
2023,05,14,11,14,24.90
2023,05,14,11,15,25.00
2023,05,14,11,16,25.10
2023,05,14,11,17,25.20
2023,05,14,11,18,25.10
2023,05,14,11,19,25.10
2023,05,14,11,20,25.10
2023,05,14,11,21,25.20
2023,05,14,11,22,25.20
2023,05,14,11,23,25.20
2023,05,14,11,24,25.20
2023,05,14,11,25,25.20
2023,05,14,11,26,25.20
2023,05,14,11,27,25.30
2023,05,14,11,28,25.30
2023,05,14,11,29,25.20
2023,05,14,11,30,25.20
2023,05,14,11,31,25.30
2023,05,14,11,32,25.40
2023,05,14,11,33,25.40
2023,05,14,11,34,25.40
2023,05,14,11,35,25.50
2023,05,14,11,36,25.50
2023,05,14,11,37,25.60
2023,05,14,11,38,25.60
2023,05,14,11,39,25.70
2023,05,14,11,40,25.70
2023,05,14,11,41,25.70
2023,05,14,11,42,25.60
2023,05,14,11,43,25.70
2023,05,14,11,44,25.70
2023,05,14,11,45,25.70
2023,05,14,11,46,25.80
2023,05,14,11,47,25.90
2023,05,14,11,48,25.90
2023,05,14,11,49,26.00
2023,05,14,11,50,26.00
2023,05,14,11,51,26.00
2023,05,14,11,52,26.00
2023,05,14,11,53,26.10
2023,05,14,11,54,26.10
2023,05,14,11,55,26.10
2023,05,14,11,56,26.10
2023,05,14,11,57,26.10
2023,05,14,11,58,26.00
2023,05,14,11,59,26.00
2023,05,14,12,00,26.10
2023,05,14,12,01,26.20
2023,05,14,12,02,26.20
2023,05,14,12,03,26.30
2023,05,14,12,04,26.40
2023,05,14,12,05,26.50
2023,05,14,12,06,26.60
2023,05,14,12,07,26.60
2023,05,14,12,08,26.70
2023,05,14,12,09,26.70
2023,05,14,12,10,26.80
2023,05,14,12,11,26.80
2023,05,14,12,12,26.90
2023,05,14,12,13,27.00
2023,05,14,12,14,27.00
2023,05,14,12,15,27.10
2023,05,14,12,16,27.10
2023,05,14,12,17,27.10
2023,05,14,12,18,27.20
2023,05,14,12,19,27.20
2023,05,14,12,20,27.20
2023,05,14,12,21,27.20
2023,05,14,12,22,27.30
2023,05,14,12,23,27.30
2023,05,14,12,24,27.40
2023,05,14,12,25,27.40
2023,05,14,12,26,27.50
2023,05,14,12,27,27.50
2023,05,14,12,28,27.60
2023,05,14,12,29,27.70
2023,05,14,12,30,27.70
2023,05,14,12,31,27.70
2023,05,14,12,32,27.70
2023,05,14,12,33,27.70
2023,05,14,12,34,27.70
2023,05,14,12,35,27.70
2023,05,14,12,36,27.60
2023,05,14,12,37,27.50
2023,05,14,12,38,27.50
2023,05,14,12,39,27.50
2023,05,14,12,40,27.40
2023,05,14,12,41,27.50
2023,05,14,12,42,27.50
2023,05,14,12,43,27.50
2023,05,14,12,44,27.60
2023,05,14,12,45,27.60
2023,05,14,12,46,27.60
2023,05,14,12,47,27.70
2023,05,14,12,48,27.70
2023,05,14,12,49,27.80
2023,05,14,12,50,27.80
2023,05,14,12,51,27.80
2023,05,14,12,52,27.90
2023,05,14,12,53,28.00
2023,05,14,12,54,28.10
2023,05,14,12,55,28.20
2023,05,14,12,56,28.30
2023,05,14,12,57,28.40
2023,05,14,12,58,28.40
2023,05,14,12,59,28.40
2023,05,14,13,00,28.40
2023,05,14,13,01,28.50
2023,05,14,13,02,28.60
2023,05,14,13,03,28.80
2023,05,14,13,04,28.90
2023,05,14,13,05,29.00
2023,05,14,13,06,29.10
2023,05,14,13,07,29.10
2023,05,14,13,08,29.10
2023,05,14,13,09,29.10
2023,05,14,13,10,29.10
2023,05,14,13,11,29.10
2023,05,14,13,12,29.10
2023,05,14,13,13,29.20
2023,05,14,13,14,29.30
2023,05,14,13,15,29.40
2023,05,14,13,16,29.50
2023,05,14,13,17,29.50
2023,05,14,13,18,29.60
2023,05,14,13,19,29.70
2023,05,14,13,20,29.80
2023,05,14,13,21,29.80
2023,05,14,13,22,29.70
2023,05,14,13,23,29.70
2023,05,14,13,24,29.70
2023,05,14,13,25,29.70
2023,05,14,13,26,29.70
2023,05,14,13,27,29.80
2023,05,14,13,28,29.80
2023,05,14,13,29,29.80
2023,05,14,13,30,29.80
2023,05,14,13,31,29.80
2023,05,14,13,32,29.70
2023,05,14,13,33,29.70
2023,05,14,13,34,29.70
2023,05,14,13,35,29.60
2023,05,14,13,36,29.60
2023,05,14,13,37,29.60
2023,05,14,13,38,29.70
2023,05,14,13,39,29.70
2023,05,14,13,40,29.60
2023,05,14,13,41,29.60
2023,05,14,13,42,29.70
2023,05,14,13,43,29.70
2023,05,14,13,44,29.80
2023,05,14,13,45,29.80
2023,05,14,13,46,29.90
2023,05,14,13,47,29.90
2023,05,14,13,48,30.00
2023,05,14,13,49,30.10
2023,05,14,13,50,30.30
2023,05,14,13,51,30.40
2023,05,14,13,52,30.60
2023,05,14,13,53,30.60
2023,05,14,13,54,30.70
2023,05,14,13,55,30.80
2023,05,14,13,56,30.80
2023,05,14,13,57,30.80
2023,05,14,13,58,30.80
2023,05,14,13,59,30.90
2023,05,14,14,00,30.90
2023,05,14,14,01,30.90
2023,05,14,14,02,30.90
2023,05,14,14,03,30.90
2023,05,14,14,04,30.90
2023,05,14,14,05,31.00
2023,05,14,14,06,31.10
2023,05,14,14,07,31.20
2023,05,14,14,08,31.20
2023,05,14,14,09,31.20
2023,05,14,14,10,31.30
2023,05,14,14,11,31.40
2023,05,14,14,12,31.50
2023,05,14,14,13,31.60
2023,05,14,14,14,31.70
2023,05,14,14,15,31.80
2023,05,14,14,16,31.80
2023,05,14,14,17,31.80
2023,05,14,14,18,31.90
2023,05,14,14,19,31.80
2023,05,14,14,20,31.80
2023,05,14,14,21,31.70
2023,05,14,14,22,31.70
2023,05,14,14,23,31.60
2023,05,14,14,24,31.60
2023,05,14,14,25,31.60
2023,05,14,14,26,31.60
2023,05,14,14,27,31.50
2023,05,14,14,28,31.40
2023,05,14,14,29,31.40
2023,05,14,14,30,31.30
2023,05,14,14,31,31.30
2023,05,14,14,32,31.40
2023,05,14,14,33,31.50
2023,05,14,14,34,31.60
2023,05,14,14,35,31.70
2023,05,14,14,36,31.70
2023,05,14,14,37,31.70
2023,05,14,14,38,31.80
2023,05,14,14,39,31.80
2023,05,14,14,40,31.90
2023,05,14,14,41,31.90
2023,05,14,14,42,31.90
2023,05,14,14,43,32.00
2023,05,14,14,44,32.10
2023,05,14,14,45,32.20
2023,05,14,14,46,32.10
2023,05,14,14,47,32.10
2023,05,14,14,48,32.10
2023,05,14,14,49,32.10
2023,05,14,14,50,32.10
2023,05,14,14,51,32.20
2023,05,14,14,52,32.10
2023,05,14,14,53,32.00
2023,05,14,14,54,32.00
2023,05,14,14,55,32.00
2023,05,14,14,56,32.00
2023,05,14,14,57,32.10
2023,05,14,14,58,32.20
2023,05,14,14,59,32.30
2023,05,14,15,00,32.40
2023,05,14,15,01,32.50
2023,05,14,15,02,32.60
2023,05,14,15,03,32.60
2023,05,14,15,04,32.60
2023,05,14,15,05,32.50
2023,05,14,15,06,32.50
2023,05,14,15,07,32.50
2023,05,14,15,08,32.50
2023,05,14,15,09,32.60
2023,05,14,15,10,32.50
2023,05,14,15,11,32.50
2023,05,14,15,12,32.50
2023,05,14,15,13,32.60
2023,05,14,15,14,32.60
2023,05,14,15,15,32.60
2023,05,14,15,16,32.70
2023,05,14,15,17,32.70
2023,05,14,15,18,32.70
2023,05,14,15,19,32.70
2023,05,14,15,20,32.60
2023,05,14,15,21,32.60
2023,05,14,15,22,32.50
2023,05,14,15,23,32.40
2023,05,14,15,24,32.40
2023,05,14,15,25,32.40
2023,05,14,15,26,32.40
2023,05,14,15,27,32.50
2023,05,14,15,28,32.60
2023,05,14,15,29,32.60
2023,05,14,15,30,32.70
2023,05,14,15,31,32.70
2023,05,14,15,32,32.80
2023,05,14,15,33,32.80
2023,05,14,15,34,32.90
2023,05,14,15,35,32.80
2023,05,14,15,36,32.90
2023,05,14,15,37,32.90
2023,05,14,15,38,33.00
2023,05,14,15,39,33.00
2023,05,14,15,40,33.00
2023,05,14,15,41,33.10
2023,05,14,15,42,33.10
2023,05,14,15,43,33.10
2023,05,14,15,44,33.10
2023,05,14,15,45,33.10
2023,05,14,15,46,33.20
2023,05,14,15,47,33.20
2023,05,14,15,48,33.20
2023,05,14,15,49,33.20
2023,05,14,15,50,33.20
2023,05,14,15,51,33.10
2023,05,14,15,52,33.10
2023,05,14,15,53,33.10
2023,05,14,15,54,33.10
2023,05,14,15,55,33.10
2023,05,14,15,56,33.10
2023,05,14,15,57,33.20
2023,05,14,15,58,33.30
2023,05,14,15,59,33.30
2023,05,14,16,00,33.30
2023,05,14,16,01,33.30
2023,05,14,16,02,33.40
2023,05,14,16,03,33.40
2023,05,14,16,04,33.50
2023,05,14,16,05,33.50
2023,05,14,16,06,33.60
2023,05,14,16,07,33.50
2023,05,14,16,08,33.50
2023,05,14,16,09,33.50
2023,05,14,16,10,33.50
2023,05,14,16,11,33.40
2023,05,14,16,12,33.30
2023,05,14,16,13,33.30
2023,05,14,16,14,33.30
2023,05,14,16,15,33.20
2023,05,14,16,16,33.30
2023,05,14,16,17,33.30
2023,05,14,16,18,33.20
2023,05,14,16,19,33.20
2023,05,14,16,20,33.20
2023,05,14,16,21,33.20
2023,05,14,16,22,33.20
2023,05,14,16,23,33.30
2023,05,14,16,24,33.30
2023,05,14,16,25,33.30
2023,05,14,16,26,33.40
2023,05,14,16,27,33.40
2023,05,14,16,28,33.40
2023,05,14,16,29,33.40
2023,05,14,16,30,33.40
2023,05,14,16,31,33.30
2023,05,14,16,32,33.20
2023,05,14,16,33,33.10
2023,05,14,16,34,33.00
2023,05,14,16,35,32.90
2023,05,14,16,36,32.80
2023,05,14,16,37,32.80
2023,05,14,16,38,32.80
2023,05,14,16,39,32.80
2023,05,14,16,40,32.70
2023,05,14,16,41,32.70
2023,05,14,16,42,32.70
2023,05,14,16,43,32.70
2023,05,14,16,44,32.70
2023,05,14,16,45,32.70
2023,05,14,16,46,32.70
2023,05,14,16,47,32.70
2023,05,14,16,48,32.70
2023,05,14,16,49,32.60
2023,05,14,16,50,32.50
2023,05,14,16,51,32.50
2023,05,14,16,52,32.50
2023,05,14,16,53,32.50
2023,05,14,16,54,32.50
2023,05,14,16,55,32.50
2023,05,14,16,56,32.50
2023,05,14,16,57,32.50
2023,05,14,16,58,32.50
2023,05,14,16,59,32.40
2023,05,14,17,00,32.40
2023,05,14,17,01,32.30
2023,05,14,17,02,32.30
2023,05,14,17,03,32.30
2023,05,14,17,04,32.30
2023,05,14,17,05,32.30
2023,05,14,17,06,32.40
2023,05,14,17,07,32.40
2023,05,14,17,08,32.40
2023,05,14,17,09,32.40
2023,05,14,17,10,32.40
2023,05,14,17,11,32.40
2023,05,14,17,12,32.50
2023,05,14,17,13,32.60
2023,05,14,17,14,32.60
2023,05,14,17,15,32.70
2023,05,14,17,16,32.70
2023,05,14,17,17,32.70
2023,05,14,17,18,32.80
2023,05,14,17,19,32.80